Location: Schommer Observatory
(40.5200°N, 74.4500°W)
Time: 15:38:31
(UTC-04:00)

Envisat - Visible Passes

Search period start: 15 October 2019 00:00
Search period end: 25 October 2019 00:00
Orbit: 764 x 766 km, 98.1° (Epoch: 15 October)

Date Brightness Start Highest point End Pass type
(mag) Time Alt. Az. Time Alt. Az. Time Alt. Az.
15 Oct 5.1 19:56:29 10° SSW 20:00:50 28° W 20:05:13 10° NW visible
16 Oct 6.7 06:28:54 10° ENE 06:30:19 11° E 06:31:44 10° ESE visible
16 Oct 3.5 19:18:53 10° S 19:23:55 64° W 19:28:59 10° NNW visible
17 Oct 3.1 18:42:14 10° SSE 18:47:11 57° ENE 18:52:11 10° N visible
17 Oct 5.9 20:23:28 10° SW 20:26:34 16° W 20:29:41 10° NW visible
18 Oct 4.6 19:44:52 10° SSW 19:49:30 36° W 19:54:11 10° NNW visible
19 Oct 3.1 19:07:34 10° S 19:12:39 82° WSW 19:17:45 10° NNW visible
20 Oct 3.3 18:31:10 10° SE 18:35:59 45° ENE 18:40:48 10° N visible
20 Oct 5.6 20:11:27 10° SW 20:15:11 21° W 20:18:58 10° NW visible
21 Oct 6.2 06:41:39 10° NE 06:44:45 16° E 06:47:49 10° SE visible
21 Oct 4.1 19:33:20 10° S 19:38:11 46° W 19:43:05 10° NNW visible
22 Oct 2.9 18:56:19 10° SSE 19:01:23 80° ENE 19:06:29 10° N visible
22 Oct 6.2 20:39:29 10° WSW 20:40:58 11° W 20:42:29 10° WNW visible
23 Oct 5.2 19:59:38 10° SSW 20:03:50 26° W 20:08:04 10° NW visible
24 Oct 6.5 06:31:17 10° ENE 06:33:21 12° E 06:35:25 10° ESE visible
24 Oct 3.6 19:21:54 10° S 19:26:54 59° W 19:31:55 10° NNW visible
